Tucumcari, NM

7:35 PM MDT on August 25, 2016 (GMT -0600)
Tucumcari Municipal

Weather History for KTCC - February, 2013

Change the Weather History Date:

Sunday, February 17, 2013

  Actual Average Record
Temperature  
Mean Temperature 52 °F -  
Max Temperature 73 °F 57 °F 80 °F (1970)
Min Temperature 30 °F 29 °F -3 °F (1910)
Degree Days  
Heating Degree Days 14    
Growing Degree Days 2 (Base 50)    
Moisture  
Dew Point 3 °F    
Average Humidity 19    
Maximum Humidity 40    
Minimum Humidity 4    
Precipitation  
Precipitation 0.00 in - - ()
Sea Level Pressure  
Sea Level Pressure 29.74 in    
Wind  
Wind Speed 12 mph (WSW)    
Max Wind Speed 30 mph    
Max Gust Speed 36 mph    
Visibility 10 miles    
Events      
Averages and records for this station are not official NWS values.
T = Trace of Precipitation, MM = Missing Value Source: NWS Daily Summary

Daily Weather History Graph

Daily Weather History Graph

Search for Another Location

Airport or City:

Trip Planner

Search our weather history database for the weather conditions in past years. The results will help you decide how hot, cold, wet, or windy it might be!

Date:

Astronomy

Feb. 17, 2013 Rise Set
Actual Time 6:38 AM MST 5:39 PM MST
Civil Twilight 6:12 AM MST 6:05 PM MST
Nautical Twilight 5:42 AM MST 6:34 PM MST
Astronomical Twilight 5:13 AM MST 7:04 PM MST
Moon 10:50 AM MST (2/17) 12:19 AM MST (2/17)
Length of Visible Light 11h 52m
Length of Day
11h 01m
Waxing Crescent, 49% of the Moon is Illuminated
Feb 17
Waxing Crescent
Feb 17
First Quarter
Feb 25
Full
Mar 4
Last Quarter
Mar 11
New

Hourly Weather History & Observations

Time (MST) Temp. Windchill Dew Point Humidity Pressure Visibility Wind Dir Wind Speed Gust Speed Precip Events Conditions
12:53 AM 37.9 °F 31.5 °F 9.0 °F 30% 29.94 in 10.0 mi West 9.2 mph - N/A   Clear
1:53 AM 39.0 °F 31.8 °F 8.1 °F 28% 29.91 in 10.0 mi WNW 11.5 mph - N/A   Clear
2:53 AM 34.0 °F 28.8 °F 8.1 °F 34% 29.90 in 10.0 mi WNW 5.8 mph - N/A   Clear
3:53 AM 33.1 °F 25.5 °F 9.0 °F 37% 29.89 in 10.0 mi West 9.2 mph - N/A   Clear
4:53 AM 35.1 °F 26.4 °F 8.1 °F 33% 29.89 in 10.0 mi West 12.7 mph - N/A   Clear
5:53 AM 30.0 °F 20.0 °F 8.1 °F 40% 29.91 in 10.0 mi WSW 12.7 mph - N/A   Clear
6:53 AM 34.0 °F 25.0 °F 9.0 °F 35% 29.91 in 10.0 mi West 12.7 mph - N/A   Clear
7:53 AM 39.0 °F 34.0 °F 10.0 °F 30% 29.89 in 10.0 mi West 6.9 mph - N/A   Clear
8:53 AM 46.9 °F - 9.0 °F 21% 29.89 in 10.0 mi West 12.7 mph - N/A   Clear
9:53 AM 55.0 °F - 6.1 °F 14% 29.85 in 10.0 mi West 11.5 mph - N/A   Clear
10:53 AM 60.1 °F - 5.0 °F 11% 29.81 in 10.0 mi WSW 6.9 mph - N/A   Clear
11:53 AM 64.9 °F - 5.0 °F 9% 29.74 in 10.0 mi SSW 8.1 mph - N/A   Clear
12:53 PM 68.0 °F - -2.9 °F 6% 29.68 in 10.0 mi West 8.1 mph - N/A   Clear
1:53 PM 72.0 °F - -9.9 °F 4% 29.63 in 10.0 mi West 26.5 mph 35.7 mph N/A   Clear
2:53 PM 70.0 °F - -11.0 °F 4% 29.61 in 10.0 mi WSW 25.3 mph 34.5 mph N/A   Clear
3:53 PM 73.0 °F - -11.9 °F 4% 29.57 in 10.0 mi SW 29.9 mph 35.7 mph N/A   Clear
4:53 PM 68.0 °F - -4.0 °F 6% 29.57 in 10.0 mi SSW 21.9 mph 31.1 mph N/A   Clear
5:53 PM 60.1 °F - -2.9 °F 8% 29.61 in 10.0 mi SSW 13.8 mph - N/A   Clear
6:53 PM 53.1 °F - -0.9 °F 11% 29.61 in 10.0 mi SW 11.5 mph - N/A   Clear
7:53 PM 50.0 °F - 1.9 °F 14% 29.61 in 10.0 mi SW 10.4 mph - N/A   Clear
8:53 PM 48.9 °F - 3.0 °F 15% 29.60 in 10.0 mi SW 6.9 mph - N/A   Clear
10:53 PM 46.9 °F - 5.0 °F 18% 29.55 in 10.0 mi WSW 11.5 mph - N/A   Clear
11:53 PM 44.1 °F 38.1 °F 5.0 °F 20% 29.55 in 10.0 mi SW 11.5 mph - N/A   Clear